Time,TemperatureF,DewpointF,PressureIn,WindDirection,WindDirectionDegrees,WindSpeedMPH,WindSpeedGustMPH,Humidity,HourlyPrecipIn,Conditions,Clouds,dailyrainin,SoftwareType,DateUTC
2013-07-09 06:53:00,75.9,75.4,30.13,SW,225,6.9,6.9,98,0.00,,,0.00,meteobridge,2013-07-09 10:53:00,
2013-07-09 06:54:00,75.9,75.4,30.13,SW,225,7.6,7.6,98,0.00,,,0.00,meteobridge,2013-07-09 10:54:00,
2013-07-09 06:55:00,75.9,75.4,30.13,West,270,6.9,7.6,98,0.00,,,0.00,meteobridge,2013-07-09 10:55:00,
2013-07-09 07:00:00,75.9,75.4,30.13,SW,225,6.9,6.9,98,0.00,,,0.00,meteobridge,2013-07-09 11:00:00,
2013-07-09 07:05:00,75.7,75.2,30.14,South,180,3.8,5.4,98,0.00,,,0.00,meteobridge,2013-07-09 11:05:00,
2013-07-09 07:11:00,75.7,75.2,30.14,SW,225,6.0,6.9,98,0.00,,,0.00,meteobridge,2013-07-09 11:11:00,
2013-07-09 07:13:00,75.9,75.4,30.14,WSW,248,7.6,7.6,98,0.00,,,0.00,meteobridge,2013-07-09 11:13:00,
2013-07-09 07:18:00,75.7,75.2,30.14,SW,225,6.0,6.9,98,0.00,,,0.00,meteobridge,2013-07-09 11:18:00,
2013-07-09 07:23:00,75.6,75.0,30.13,NW,315,6.9,7.6,98,0.00,,,0.00,meteobridge,2013-07-09 11:23:00,
2013-07-09 07:28:00,75.4,74.8,30.13,SSW,203,5.4,5.4,98,0.00,,,0.00,meteobridge,2013-07-09 11:28:00,
2013-07-09 07:34:00,75.6,75.0,30.13,West,270,5.4,5.4,98,0.00,,,0.00,meteobridge,2013-07-09 11:34:00,
2013-07-09 07:39:00,75.7,75.2,30.13,SE,135,3.1,3.1,98,0.00,,,0.00,meteobridge,2013-07-09 11:39:00,
2013-07-09 07:44:00,75.9,75.4,30.14,SW,225,6.9,6.9,98,0.00,,,0.00,meteobridge,2013-07-09 11:44:00,
2013-07-09 07:49:00,76.1,75.6,30.14,WSW,248,6.9,9.2,98,0.00,,,0.00,meteobridge,2013-07-09 11:49:00,
2013-07-09 07:54:00,76.6,75.7,30.14,South,180,4.5,4.5,97,0.00,,,0.00,meteobridge,2013-07-09 11:54:00,
2013-07-09 07:59:00,77.0,75.7,30.14,South,180,5.4,7.6,96,0.00,,,0.00,meteobridge,2013-07-09 11:59:00,
2013-07-09 08:05:00,77.4,75.7,30.14,SW,225,6.0,6.0,95,0.00,,,0.00,meteobridge,2013-07-09 12:05:00,
2013-07-09 08:10:00,77.7,75.9,30.14,SW,225,3.8,6.9,94,0.00,,,0.00,meteobridge,2013-07-09 12:10:00,
2013-07-09 08:15:00,77.5,75.4,30.14,SW,225,6.0,6.9,93,0.00,,,0.00,meteobridge,2013-07-09 12:15:00,
2013-07-09 08:20:00,77.7,75.6,30.14,SW,225,3.8,3.8,93,0.00,,,0.00,meteobridge,2013-07-09 12:20:00,
2013-07-09 08:25:00,78.3,76.1,30.14,SW,225,2.2,3.1,93,0.00,,,0.00,meteobridge,2013-07-09 12:25:00,
2013-07-09 08:30:00,78.8,75.9,30.14,SE,135,2.2,3.8,91,0.00,,,0.00,meteobridge,2013-07-09 12:30:00,
2013-07-09 08:36:00,78.8,75.2,30.14,SE,135,5.4,5.4,89,0.00,,,0.00,meteobridge,2013-07-09 12:36:00,
2013-07-09 08:41:00,78.4,75.2,30.14,SE,135,3.8,4.5,90,0.00,,,0.00,meteobridge,2013-07-09 12:41:00,
2013-07-09 08:46:00,78.4,75.6,30.14,SW,225,3.8,3.8,91,0.00,,,0.00,meteobridge,2013-07-09 12:46:00,
2013-07-09 08:51:00,78.8,75.6,30.14,SW,225,4.5,4.5,90,0.00,,,0.00,meteobridge,2013-07-09 12:51:00,
2013-07-09 08:56:00,79.2,75.6,30.14,NW,315,1.6,2.2,89,0.00,,,0.00,meteobridge,2013-07-09 12:56:00,
2013-07-09 09:01:00,79.9,75.9,30.14,South,180,1.6,1.6,88,0.00,,,0.00,meteobridge,2013-07-09 13:01:00,
2013-07-09 09:07:00,79.9,75.4,30.14,East,90,3.1,6.0,86,0.00,,,0.00,meteobridge,2013-07-09 13:07:00,
2013-07-09 09:12:00,79.7,75.2,30.14,South,180,5.4,6.0,86,0.00,,,0.00,meteobridge,2013-07-09 13:12:00,
2013-07-09 09:17:00,79.3,75.2,30.14,South,180,4.5,4.5,87,0.00,,,0.00,meteobridge,2013-07-09 13:17:00,
2013-07-09 09:22:00,79.7,75.6,30.14,South,180,3.8,5.4,87,0.00,,,0.00,meteobridge,2013-07-09 13:22:00,
2013-07-09 09:27:00,80.6,76.1,30.14,SW,225,3.8,3.8,86,0.00,,,0.00,meteobridge,2013-07-09 13:27:00,
2013-07-09 09:32:00,81.9,76.5,30.14,SE,135,0.7,3.1,84,0.00,,,0.00,meteobridge,2013-07-09 13:32:00,
2013-07-09 09:38:00,82.6,75.7,30.14,SE,135,3.8,5.4,80,0.00,,,0.00,meteobridge,2013-07-09 13:38:00,
2013-07-09 09:43:00,82.6,75.7,30.14,East,90,5.4,6.0,80,0.00,,,0.00,meteobridge,2013-07-09 13:43:00,
2013-07-09 09:48:00,82.2,75.7,30.14,ENE,68,2.2,3.8,81,0.00,,,0.00,meteobridge,2013-07-09 13:48:00,
2013-07-09 09:53:00,81.9,75.7,30.14,SW,225,6.0,6.9,82,0.00,,,0.00,meteobridge,2013-07-09 13:53:00,
2013-07-09 09:58:00,81.3,75.7,30.14,South,180,3.1,4.5,83,0.00,,,0.00,meteobridge,2013-07-09 13:58:00,
2013-07-09 10:03:00,81.3,75.4,30.14,East,90,3.8,3.8,82,0.00,,,0.00,meteobridge,2013-07-09 14:03:00,
2013-07-09 10:09:00,81.3,75.7,30.14,SE,135,2.2,3.1,83,0.00,,,0.00,meteobridge,2013-07-09 14:09:00,
2013-07-09 10:14:00,81.9,76.1,30.14,South,180,3.1,3.1,83,0.00,,,0.00,meteobridge,2013-07-09 14:14:00,
2013-07-09 10:19:00,81.3,75.7,30.14,South,180,1.6,3.1,83,0.00,,,0.00,meteobridge,2013-07-09 14:19:00,
2013-07-09 10:24:00,81.7,75.9,30.14,SE,135,2.2,3.1,83,0.00,,,0.00,meteobridge,2013-07-09 14:24:00,
2013-07-09 10:29:00,82.0,76.3,30.14,SE,135,3.1,3.1,83,0.00,,,0.00,meteobridge,2013-07-09 14:29:00,
2013-07-09 10:34:00,82.4,76.6,30.14,South,180,2.2,3.1,83,0.00,,,0.00,meteobridge,2013-07-09 14:34:00,
2013-07-09 10:40:00,82.4,76.3,30.14,SW,225,3.8,3.8,82,0.00,,,0.00,meteobridge,2013-07-09 14:40:00,
2013-07-09 10:45:00,82.4,76.3,30.14,SW,225,2.2,2.2,82,0.00,,,0.00,meteobridge,2013-07-09 14:45:00,
2013-07-09 10:50:00,82.0,76.3,30.14,South,180,4.5,5.4,83,0.00,,,0.00,meteobridge,2013-07-09 14:50:00,
2013-07-09 10:55:00,81.7,75.9,30.14,South,180,2.2,3.8,83,0.00,,,0.00,meteobridge,2013-07-09 14:55:00,
2013-07-09 11:00:00,82.2,76.5,30.14,SE,135,1.6,3.1,83,0.00,,,0.00,meteobridge,2013-07-09 15:00:00,
2013-07-09 11:05:00,82.4,77.0,30.14,SE,135,3.8,6.0,84,0.00,,,0.00,meteobridge,2013-07-09 15:05:00,
2013-07-09 11:11:00,82.2,76.5,30.14,SE,135,2.2,3.1,83,0.00,,,0.00,meteobridge,2013-07-09 15:11:00,
2013-07-09 11:16:00,82.9,77.2,30.15,SW,225,2.2,3.1,83,0.00,,,0.00,meteobridge,2013-07-09 15:16:00,
2013-07-09 11:21:00,83.5,77.4,30.15,SE,135,0.7,1.6,82,0.00,,,0.00,meteobridge,2013-07-09 15:21:00,
2013-07-09 11:26:00,84.0,77.5,30.15,SE,135,1.6,1.6,81,0.00,,,0.00,meteobridge,2013-07-09 15:26:00,
2013-07-09 11:31:00,83.3,76.8,30.14,SE,135,1.6,3.8,81,0.00,,,0.00,meteobridge,2013-07-09 15:31:00,
2013-07-09 11:36:00,83.5,77.4,30.15,South,180,1.6,1.6,82,0.00,,,0.00,meteobridge,2013-07-09 15:36:00,
2013-07-09 11:42:00,83.8,77.7,30.15,East,90,0.7,1.6,82,0.00,,,0.00,meteobridge,2013-07-09 15:42:00,
2013-07-09 11:47:00,83.8,77.7,30.14,SE,135,2.2,2.2,82,0.00,,,0.00,meteobridge,2013-07-09 15:47:00,
2013-07-09 11:52:00,83.3,77.5,30.15,SE,135,1.6,2.2,83,0.00,,,0.00,meteobridge,2013-07-09 15:52:00,
2013-07-09 11:57:00,83.1,77.4,30.15,SE,135,3.1,3.1,83,0.00,,,0.00,meteobridge,2013-07-09 15:57:00,
2013-07-09 12:02:00,82.9,77.5,30.14,South,180,2.2,3.1,84,0.00,,,0.00,meteobridge,2013-07-09 16:02:00,
2013-07-09 12:08:00,82.9,77.2,30.14,South,180,3.1,4.5,83,0.00,,,0.00,meteobridge,2013-07-09 16:08:00,
2013-07-09 12:13:00,83.8,78.1,30.14,East,90,3.8,3.8,83,0.00,,,0.00,meteobridge,2013-07-09 16:13:00,
2013-07-09 12:18:00,84.6,77.7,30.14,SE,135,4.5,5.4,80,0.00,,,0.00,meteobridge,2013-07-09 16:18:00,
2013-07-09 12:23:00,85.3,77.7,30.14,South,180,6.0,6.0,78,0.00,,,0.00,meteobridge,2013-07-09 16:23:00,
2013-07-09 12:28:00,85.5,77.0,30.14,South,180,9.2,9.2,76,0.00,,,0.00,meteobridge,2013-07-09 16:28:00,
2013-07-09 12:33:00,85.6,76.8,30.14,SW,225,6.9,7.6,75,0.00,,,0.00,meteobridge,2013-07-09 16:33:00,
2013-07-09 12:39:00,87.1,77.0,30.14,South,180,5.4,7.6,72,0.00,,,0.00,meteobridge,2013-07-09 16:39:00,
2013-07-09 12:44:00,86.9,76.3,30.14,South,180,4.5,4.5,71,0.00,,,0.00,meteobridge,2013-07-09 16:44:00,
2013-07-09 12:49:00,87.3,76.3,30.13,SW,225,3.8,6.9,70,0.00,,,0.00,meteobridge,2013-07-09 16:49:00,
2013-07-09 12:54:00,87.3,76.3,30.13,SW,225,4.5,8.3,70,0.00,,,0.00,meteobridge,2013-07-09 16:54:00,
2013-07-09 12:59:00,86.9,76.8,30.12,South,180,7.6,8.3,72,0.00,,,0.00,meteobridge,2013-07-09 16:59:00,
2013-07-09 13:04:00,87.3,76.6,30.12,South,180,4.5,5.4,71,0.00,,,0.00,meteobridge,2013-07-09 17:04:00,
2013-07-09 13:10:00,88.5,77.0,30.12,SW,225,6.9,6.9,69,0.00,,,0.00,meteobridge,2013-07-09 17:10:00,
2013-07-09 13:15:00,87.6,77.0,30.12,SW,225,6.0,6.0,71,0.00,,,0.00,meteobridge,2013-07-09 17:15:00,
2013-07-09 13:20:00,87.3,76.6,30.11,South,180,6.9,7.6,71,0.00,,,0.00,meteobridge,2013-07-09 17:20:00,
2013-07-09 13:25:00,87.8,77.2,30.11,SW,225,9.2,9.2,71,0.00,,,0.00,meteobridge,2013-07-09 17:25:00,
2013-07-09 13:30:00,89.6,77.2,30.11,SW,225,5.4,6.0,67,0.00,,,0.00,meteobridge,2013-07-09 17:30:00,
2013-07-09 13:35:00,88.0,76.5,30.11,SW,225,6.9,8.3,69,0.00,,,0.00,meteobridge,2013-07-09 17:35:00,
2013-07-09 13:41:00,88.5,76.6,30.11,SW,225,4.5,4.5,68,0.00,,,0.00,meteobridge,2013-07-09 17:41:00,
2013-07-09 13:46:00,89.4,77.0,30.10,West,270,5.4,5.4,67,0.00,,,0.00,meteobridge,2013-07-09 17:46:00,
2013-07-09 13:51:00,89.2,76.8,30.11,West,270,9.8,9.8,67,0.00,,,0.00,meteobridge,2013-07-09 17:51:00,
2013-07-09 13:56:00,87.8,76.3,30.11,SW,225,8.3,10.7,69,0.00,,,0.00,meteobridge,2013-07-09 17:56:00,
2013-07-09 14:01:00,88.3,76.5,30.10,NW,315,8.3,12.1,68,0.00,,,0.00,meteobridge,2013-07-09 18:01:00,
2013-07-09 14:06:00,90.7,77.4,30.10,SW,225,7.6,7.6,65,0.00,,,0.00,meteobridge,2013-07-09 18:06:00,
2013-07-09 14:12:00,90.7,76.3,30.10,West,270,7.6,7.6,63,0.00,,,0.00,meteobridge,2013-07-09 18:12:00,
2013-07-09 14:17:00,89.2,76.8,30.09,SE,135,6.0,9.2,67,0.00,,,0.00,meteobridge,2013-07-09 18:17:00,
2013-07-09 14:22:00,90.9,76.1,30.09,West,270,7.6,8.3,62,0.00,,,0.00,meteobridge,2013-07-09 18:22:00,
2013-07-09 14:27:00,90.1,76.8,30.09,West,270,5.4,6.0,65,0.00,,,0.00,meteobridge,2013-07-09 18:27:00,
2013-07-09 14:32:00,90.9,76.1,30.09,SW,225,7.6,7.6,62,0.00,,,0.00,meteobridge,2013-07-09 18:32:00,
2013-07-09 14:37:00,90.9,76.1,30.08,West,270,6.9,7.6,62,0.00,,,0.00,meteobridge,2013-07-09 18:37:00,
2013-07-09 14:43:00,91.2,76.8,30.08,NW,315,7.6,7.6,63,0.00,,,0.00,meteobridge,2013-07-09 18:43:00,
2013-07-09 14:48:00,92.3,76.8,30.08,East,90,6.9,6.9,61,0.00,,,0.00,meteobridge,2013-07-09 18:48:00,
2013-07-09 14:53:00,90.5,73.2,30.09,South,180,11.4,11.4,57,0.00,,,0.00,meteobridge,2013-07-09 18:53:00,
2013-07-09 14:58:00,87.8,71.6,30.08,East,90,9.8,9.8,59,0.00,,,0.00,meteobridge,2013-07-09 18:58:00,
2013-07-09 15:03:00,88.3,72.1,30.08,SE,135,12.1,12.1,59,0.00,,,0.00,meteobridge,2013-07-09 19:03:00,
2013-07-09 15:08:00,87.3,73.0,30.08,East,90,11.4,11.4,63,0.00,,,0.00,meteobridge,2013-07-09 19:08:00,
2013-07-09 15:14:00,84.7,72.1,30.08,East,90,9.8,10.7,66,0.00,,,0.00,meteobridge,2013-07-09 19:14:00,
2013-07-09 15:19:00,83.7,72.3,30.08,East,90,3.8,7.6,69,0.00,,,0.00,meteobridge,2013-07-09 19:19:00,
2013-07-09 15:24:00,83.7,73.6,30.08,East,90,4.5,5.4,72,0.00,,,0.00,meteobridge,2013-07-09 19:24:00,
2013-07-09 15:29:00,83.1,74.8,30.08,South,180,5.4,6.0,76,0.01,,,0.01,meteobridge,2013-07-09 19:29:00,
2013-07-09 15:34:00,83.5,75.0,30.08,SE,135,3.8,4.5,76,0.01,,,0.01,meteobridge,2013-07-09 19:34:00,
2013-07-09 15:39:00,84.9,76.1,30.07,SE,135,3.8,3.8,75,0.01,,,0.01,meteobridge,2013-07-09 19:39:00,
2013-07-09 15:45:00,84.6,75.7,30.07,SE,135,5.4,8.3,75,0.01,,,0.01,meteobridge,2013-07-09 19:45:00,
2013-07-09 15:50:00,83.7,75.7,30.08,East,90,3.8,4.5,77,0.01,,,0.01,meteobridge,2013-07-09 19:50:00,
2013-07-09 15:55:00,83.5,75.6,30.08,East,90,3.8,5.4,77,0.01,,,0.01,meteobridge,2013-07-09 19:55:00,
2013-07-09 16:00:00,83.1,75.9,30.08,East,90,2.2,3.8,79,0.01,,,0.01,meteobridge,2013-07-09 20:00:00,
2013-07-09 16:05:00,83.5,76.3,30.08,South,180,2.2,2.2,79,0.01,,,0.01,meteobridge,2013-07-09 20:05:00,
2013-07-09 16:10:00,84.7,77.5,30.07,East,90,0.0,1.6,79,0.01,,,0.01,meteobridge,2013-07-09 20:10:00,
2013-07-09 16:16:00,85.3,77.2,30.07,East,90,3.1,3.1,77,0.01,,,0.01,meteobridge,2013-07-09 20:16:00,
2013-07-09 16:21:00,84.2,77.0,30.08,SE,135,6.9,6.9,79,0.01,,,0.01,meteobridge,2013-07-09 20:21:00,
2013-07-09 16:26:00,83.3,76.1,30.07,East,90,9.2,9.2,79,0.00,,,0.01,meteobridge,2013-07-09 20:26:00,
2013-07-09 16:31:00,83.1,75.2,30.07,SE,135,7.6,7.6,77,0.00,,,0.01,meteobridge,2013-07-09 20:31:00,
2013-07-09 16:36:00,82.4,74.5,30.06,NE,45,10.7,13.6,77,0.00,,,0.01,meteobridge,2013-07-09 20:36:00,
2013-07-09 16:41:00,81.5,73.9,30.06,South,180,12.1,13.6,78,0.00,,,0.01,meteobridge,2013-07-09 20:41:00,
2013-07-09 16:47:00,81.3,74.1,30.05,South,180,9.8,13.0,79,0.00,,,0.01,meteobridge,2013-07-09 20:47:00,
2013-07-09 16:52:00,81.1,74.3,30.05,SE,135,9.2,9.2,80,0.00,,,0.01,meteobridge,2013-07-09 20:52:00,
2013-07-09 16:57:00,81.1,74.7,30.05,SW,225,5.4,9.8,81,0.00,,,0.01,meteobridge,2013-07-09 20:57:00,
2013-07-09 17:02:00,81.1,74.7,30.06,East,90,7.6,11.4,81,0.00,,,0.01,meteobridge,2013-07-09 21:02:00,
2013-07-09 17:07:00,81.0,75.0,30.06,SE,135,3.1,3.8,82,0.00,,,0.01,meteobridge,2013-07-09 21:07:00,
2013-07-09 17:12:00,81.5,75.0,30.07,South,180,3.1,3.8,81,0.00,,,0.01,meteobridge,2013-07-09 21:12:00,
2013-07-09 17:18:00,81.5,74.7,30.07,East,90,4.5,7.6,80,0.00,,,0.01,meteobridge,2013-07-09 21:18:00,
2013-07-09 17:23:00,81.3,74.8,30.06,East,90,10.7,10.7,81,0.00,,,0.01,meteobridge,2013-07-09 21:23:00,
2013-07-09 17:28:00,81.1,74.7,30.06,SE,135,6.0,6.0,81,0.00,,,0.01,meteobridge,2013-07-09 21:28:00,
2013-07-09 17:33:00,81.7,75.2,30.06,East,90,2.2,4.5,81,0.00,,,0.01,meteobridge,2013-07-09 21:33:00,
2013-07-09 17:38:00,81.9,75.4,30.06,SE,135,11.4,11.4,81,0.00,,,0.01,meteobridge,2013-07-09 21:38:00,
2013-07-09 17:43:00,81.3,74.8,30.06,South,180,5.4,5.4,81,0.00,,,0.01,meteobridge,2013-07-09 21:43:00,
2013-07-09 17:49:00,81.3,74.8,30.06,SE,135,6.9,6.9,81,0.00,,,0.01,meteobridge,2013-07-09 21:49:00,
2013-07-09 17:54:00,81.5,75.0,30.06,SSE,158,6.0,7.6,81,0.00,,,0.01,meteobridge,2013-07-09 21:54:00,
2013-07-09 17:59:00,82.2,75.4,30.06,East,90,3.8,7.6,80,0.00,,,0.01,meteobridge,2013-07-09 21:59:00,
2013-07-09 18:04:00,82.6,75.0,30.05,NE,45,3.8,3.8,78,0.00,,,0.01,meteobridge,2013-07-09 22:04:00,
2013-07-09 18:09:00,82.6,74.7,30.04,SE,135,3.8,6.0,77,0.00,,,0.01,meteobridge,2013-07-09 22:09:00,
2013-07-09 18:15:00,82.2,75.0,30.04,East,90,6.0,6.0,79,0.00,,,0.01,meteobridge,2013-07-09 22:15:00,
2013-07-09 18:20:00,82.8,75.2,30.04,East,90,4.5,4.5,78,0.00,,,0.01,meteobridge,2013-07-09 22:20:00,
2013-07-09 18:25:00,83.7,75.7,30.04,SE,135,0.7,1.6,77,0.00,,,0.01,meteobridge,2013-07-09 22:25:00,
2013-07-09 18:30:00,84.2,75.0,30.05,SE,135,3.1,3.1,74,0.00,,,0.01,meteobridge,2013-07-09 22:30:00,
2013-07-09 18:35:00,85.5,75.7,30.04,SE,135,2.2,3.1,73,0.00,,,0.01,meteobridge,2013-07-09 22:35:00,
2013-07-09 18:41:00,85.8,74.8,30.04,East,90,4.5,6.0,70,0.00,,,0.01,meteobridge,2013-07-09 22:41:00,
2013-07-09 18:46:00,85.3,74.3,30.05,South,180,4.5,6.9,70,0.00,,,0.01,meteobridge,2013-07-09 22:46:00,
2013-07-09 18:51:00,84.6,74.1,30.04,SE,135,5.4,6.0,71,0.00,,,0.01,meteobridge,2013-07-09 22:51:00,
2013-07-09 18:56:00,83.8,73.8,30.05,SSE,158,9.8,11.4,72,0.00,,,0.01,meteobridge,2013-07-09 22:56:00,
2013-07-09 19:01:00,83.1,74.3,30.05,South,180,4.5,6.9,75,0.00,,,0.01,meteobridge,2013-07-09 23:01:00,
2013-07-09 19:06:00,82.4,74.1,30.06,SE,135,6.0,8.3,76,0.00,,,0.01,meteobridge,2013-07-09 23:06:00,
2013-07-09 19:12:00,81.7,74.1,30.06,SW,225,6.0,7.6,78,0.00,,,0.01,meteobridge,2013-07-09 23:12:00,
2013-07-09 19:17:00,81.7,74.5,30.06,SE,135,4.5,4.5,79,0.00,,,0.01,meteobridge,2013-07-09 23:17:00,
2013-07-09 19:22:00,81.9,74.7,30.06,SW,225,2.2,4.5,79,0.00,,,0.01,meteobridge,2013-07-09 23:22:00,
2013-07-09 19:27:00,81.7,74.5,30.07,South,180,6.0,6.9,79,0.00,,,0.01,meteobridge,2013-07-09 23:27:00,
2013-07-09 19:32:00,81.1,74.3,30.07,SE,135,7.6,7.6,80,0.00,,,0.01,meteobridge,2013-07-09 23:32:00,
2013-07-09 19:37:00,80.6,74.3,30.08,SE,135,4.5,7.6,81,0.00,,,0.01,meteobridge,2013-07-09 23:37:00,
2013-07-09 19:43:00,80.4,74.8,30.08,South,180,3.8,5.4,83,0.00,,,0.01,meteobridge,2013-07-09 23:43:00,
2013-07-09 19:48:00,80.2,74.7,30.08,NE,45,4.5,4.5,83,0.00,,,0.01,meteobridge,2013-07-09 23:48:00,
2013-07-09 19:53:00,80.1,74.8,30.08,SE,135,4.5,6.0,84,0.00,,,0.01,meteobridge,2013-07-09 23:53:00,
2013-07-09 19:58:00,79.9,75.0,30.08,SW,225,10.7,10.7,85,0.00,,,0.01,meteobridge,2013-07-09 23:58:00,
2013-07-09 20:03:00,80.1,74.8,30.08,SE,135,6.0,6.0,84,0.00,,,0.00,meteobridge,2013-07-10 00:03:00,
2013-07-09 20:08:00,80.1,74.5,30.08,South,180,3.1,4.5,83,0.00,,,0.00,meteobridge,2013-07-10 00:08:00,
2013-07-09 20:14:00,79.9,72.9,30.08,SE,135,7.6,7.6,79,0.00,,,0.00,meteobridge,2013-07-10 00:14:00,
2013-07-09 20:19:00,79.9,71.2,30.08,SW,225,8.3,9.2,75,0.00,,,0.00,meteobridge,2013-07-10 00:19:00,
2013-07-09 20:24:00,79.5,70.9,30.08,SSE,158,6.9,7.6,75,0.00,,,0.00,meteobridge,2013-07-10 00:24:00,
2013-07-09 20:29:00,79.2,70.5,30.07,SE,135,9.2,11.4,75,0.00,,,0.00,meteobridge,2013-07-10 00:29:00,
2013-07-09 20:34:00,78.6,71.2,30.07,SE,135,4.5,8.3,78,0.00,,,0.00,meteobridge,2013-07-10 00:34:00,
2013-07-09 20:39:00,78.4,71.4,30.08,SE,135,3.1,4.5,79,0.00,,,0.00,meteobridge,2013-07-10 00:39:00,
2013-07-09 20:45:00,78.1,71.4,30.07,SE,135,5.4,5.4,80,0.00,,,0.00,meteobridge,2013-07-10 00:45:00,
2013-07-09 20:50:00,77.9,72.0,30.07,SE,135,5.4,5.4,82,0.00,,,0.00,meteobridge,2013-07-10 00:50:00,
2013-07-09 20:55:00,77.7,72.1,30.07,South,180,4.5,4.5,83,0.00,,,0.00,meteobridge,2013-07-10 00:55:00,
2013-07-09 21:00:00,77.5,72.0,30.08,SE,135,3.1,4.5,83,0.00,,,0.00,meteobridge,2013-07-10 01:00:00,
2013-07-09 21:05:00,77.4,72.1,30.07,East,90,6.9,7.6,84,0.00,,,0.00,meteobridge,2013-07-10 01:05:00,
2013-07-09 21:11:00,77.0,72.1,30.08,SE,135,3.8,5.4,85,0.00,,,0.00,meteobridge,2013-07-10 01:11:00,
2013-07-09 21:16:00,76.8,72.3,30.08,SE,135,5.4,5.4,86,0.00,,,0.00,meteobridge,2013-07-10 01:16:00,
2013-07-09 21:21:00,76.6,72.1,30.08,SE,135,5.4,5.4,86,0.00,,,0.00,meteobridge,2013-07-10 01:21:00,
2013-07-09 21:26:00,76.5,72.3,30.08,SE,135,2.2,3.1,87,0.00,,,0.00,meteobridge,2013-07-10 01:26:00,
2013-07-09 21:31:00,76.3,72.1,30.08,South,180,3.1,3.1,87,0.00,,,0.00,meteobridge,2013-07-10 01:31:00,
2013-07-09 21:36:00,76.1,72.3,30.08,South,180,3.8,3.8,88,0.00,,,0.00,meteobridge,2013-07-10 01:36:00,
2013-07-09 21:42:00,75.9,72.5,30.09,SW,225,3.1,3.1,89,0.00,,,0.00,meteobridge,2013-07-10 01:42:00,
2013-07-09 21:47:00,75.9,72.9,30.09,South,180,2.2,3.8,90,0.00,,,0.00,meteobridge,2013-07-10 01:47:00,
2013-07-09 21:52:00,76.1,72.9,30.09,SE,135,2.2,3.1,90,0.00,,,0.00,meteobridge,2013-07-10 01:52:00,
2013-07-09 21:57:00,76.1,72.9,30.09,SE,135,3.1,3.1,90,0.00,,,0.00,meteobridge,2013-07-10 01:57:00,
2013-07-09 22:02:00,75.9,72.9,30.09,SE,135,3.1,3.1,90,0.00,,,0.00,meteobridge,2013-07-10 02:02:00,
2013-07-09 22:07:00,75.6,72.5,30.09,SE,135,3.1,3.1,90,0.00,,,0.00,meteobridge,2013-07-10 02:07:00,
2013-07-09 22:13:00,75.4,72.5,30.10,South,180,3.1,3.8,91,0.00,,,0.00,meteobridge,2013-07-10 02:13:00,
2013-07-09 22:18:00,75.2,72.3,30.09,SE,135,2.2,3.1,91,0.00,,,0.00,meteobridge,2013-07-10 02:18:00,
2013-07-09 22:23:00,75.0,72.5,30.10,East,90,3.1,3.8,92,0.00,,,0.00,meteobridge,2013-07-10 02:23:00,
2013-07-09 22:28:00,75.0,72.9,30.10,East,90,2.2,2.2,93,0.00,,,0.00,meteobridge,2013-07-10 02:28:00,
2013-07-09 22:33:00,75.0,72.9,30.10,South,180,2.2,2.2,93,0.00,,,0.00,meteobridge,2013-07-10 02:33:00,
2013-07-09 22:38:00,75.0,72.5,30.10,SE,135,2.2,2.2,92,0.00,,,0.00,meteobridge,2013-07-10 02:38:00,
2013-07-09 22:44:00,74.7,72.5,30.10,East,90,3.1,3.8,93,0.00,,,0.00,meteobridge,2013-07-10 02:44:00,
2013-07-09 22:49:00,74.7,72.5,30.10,SE,135,4.5,4.5,93,0.00,,,0.00,meteobridge,2013-07-10 02:49:00,
2013-07-09 22:54:00,74.7,72.5,30.10,SE,135,3.1,3.1,93,0.00,,,0.00,meteobridge,2013-07-10 02:54:00,
2013-07-09 22:59:00,74.7,72.9,30.10,SE,135,1.6,3.8,94,0.00,,,0.00,meteobridge,2013-07-10 02:59:00,
2013-07-09 23:04:00,74.7,72.5,30.10,South,180,4.5,4.5,93,0.00,,,0.00,meteobridge,2013-07-10 03:04:00,
2013-07-09 23:09:00,74.7,72.5,30.10,SE,135,1.6,3.8,93,0.00,,,0.00,meteobridge,2013-07-10 03:09:00,
2013-07-09 23:15:00,74.7,72.5,30.10,East,90,4.5,4.5,93,0.00,,,0.00,meteobridge,2013-07-10 03:15:00,
2013-07-09 23:20:00,74.5,72.3,30.11,South,180,3.1,3.1,93,0.00,,,0.00,meteobridge,2013-07-10 03:20:00,
2013-07-09 23:25:00,74.5,72.3,30.10,SE,135,3.8,5.4,93,0.00,,,0.00,meteobridge,2013-07-10 03:25:00,
2013-07-09 23:30:00,74.5,72.3,30.09,South,180,1.6,3.1,93,0.00,,,0.00,meteobridge,2013-07-10 03:30:00,
2013-07-09 23:35:00,74.5,72.7,30.09,SW,225,2.2,2.2,94,0.00,,,0.00,meteobridge,2013-07-10 03:35:00,
2013-07-09 23:40:00,74.5,73.0,30.09,SW,225,1.6,3.8,95,0.00,,,0.00,meteobridge,2013-07-10 03:40:00,
2013-07-09 23:46:00,74.5,73.0,30.09,SE,135,1.6,1.6,95,0.00,,,0.00,meteobridge,2013-07-10 03:46:00,
2013-07-09 23:51:00,74.7,73.2,30.09,SE,135,3.1,3.8,95,0.00,,,0.00,meteobridge,2013-07-10 03:51:00,
2013-07-09 23:56:00,74.5,73.0,30.09,South,180,3.1,3.1,95,0.00,,,0.00,meteobridge,2013-07-10 03:56:00,